Weather Roundup
Issued by NWS Springfield, MO

Home | Current Version | Previous Version | Text Only | Print | Product List | Glossary On
Versions: 1 2 3 4 5 6 7 8 9 10 11 12 13 14 15 16 17 18 19 20 21 22 23 24 25 26 27 28 29 30 31 32 33 34 35 36 37 38 39 40 41 42 43 44 45 46 47 48 49 50
000
NZUS99 KSGF 300707
HRRSGF

HOURLY WEATHER
NATIONAL WEATHER SERVICE SPRINGFIELD MO
200 AM CDT SAT MAY 30 2015

......SGF CWA......

CITY           SKY/WX    TMP DP  RH WIND       PRES   REMARKS
SPRINGFIELD    CLOUDY    66  64  93 SE6       29.96S
JOPLIN         CLOUDY    64  63  96 CALM      29.97F
WEST PLAINS    RAIN      65  64  97 CALM      30.00R FOG
ROLLA          LGT RAIN  65  64  97 S6        29.96F
OSAGE BEACH    CLOUDY    66  64  94 CALM      29.96S
BRANSON        LGT RAIN  64  64 100 CALM      29.97R

......SURROUNDING SGF CWA......

CITY           SKY/WX    TMP DP  RH WIND       PRES   REMARKS
CHANUTE        FOG       64  62  93 CALM      29.98S VSB 3/4
PARSONS        CLOUDY    63  63 100 CALM      29.98F
COFFEYVILLE    CLOUDY    64  64 100 CALM      29.96F
EMPORIA        CLOUDY    60  58  92 NW7       30.01R
GROVE OK       CLOUDY    64  64 100 CALM      29.98F
ROGERS AR      RAIN      64  64 100 NW7       29.98S
SILOAM SPRINGS CLOUDY    64  59  82 NW8       29.99S VSB 1
HARRISON AR    LGT RAIN  65  65 100 E5        29.96F
NEAR YELLVILLE CLOUDY    66  66 100 CALM      29.92F

......KANSAS AND MISSOURI......

CITY           SKY/WX    TMP DP  RH WIND       PRES   REMARKS
KANSAS CTY INT CLOUDY    62  62 100 S3        29.97S
DOWNTOWN KC    CLOUDY    66  63  90 S3        29.96F
COLUMBIA       LGT RAIN  66  65  96 NE5       29.96F
SEDALIA        CLOUDY    67  64  90 CALM      29.97F
ST JOSEPH      CLOUDY    64  62  93 NW15      29.98F
ST LOUIS       RAIN      72  66  83 E10       29.97F FOG
SPIRIT OF STL  LGT RAIN  69  68  96 CALM      29.94F
KIRKSVILLE     CLOUDY    66  65  96 SW3       29.98F
WICHITA        MOCLDY    62  55  77 N15G26    30.06R
TOPEKA         CLOUDY    63  61  93 MISG      29.99S
OLATHE         CLOUDY    63  63 100 CALM      29.97S

......TENNESSEE......

CITY           SKY/WX    TMP DP  RH WIND       PRES   REMARKS
MEMPHIS        MOCLDY    75  68  78 S12       29.99F
NASHVILLE      PTCLDY    71  65  81 S6        30.08S

......ARKANSAS.......

CITY           SKY/WX    TMP DP  RH WIND       PRES   REMARKS
FAYETTEVILLE   CLOUDY    65  64  97 CALM      29.97S
FT SMITH       CLOUDY    68  66  93 W7        29.94S
LITTLE ROCK    LGT RAIN  70  67  90 S10       29.92F

......OKLAHOMA.......

CITY           SKY/WX    TMP DP  RH WIND       PRES   REMARKS
TULSA          MOCLDY    64  63  96 W3        29.97F
PONCA CITY     MOCLDY    66  66 100 VRB6      30.02R
MCALESTER      MOCLDY    65  63  93 NW3       30.00S
OKLAHOMA CITY  PTCLDY    66  63  90 CALM      30.01F

......IOWA............

CITY           SKY/WX    TMP DP  RH WIND       PRES   REMARKS
DES MOINES     CLOUDY    60  57  89 N12       29.97F
QUAD CITIES    LGT RAIN  67  62  84 SW7       29.95S

......ILLINOIS........

CITY           SKY/WX    TMP DP  RH WIND       PRES   REMARKS
QUINCY         LGT RAIN  66  64  93 CALM      29.96F
CHICAGO        MOCLDY    70  64  81 SW3       29.93S




USA.gov is the U.S. government's official web portal to all federal, state and local government web resources and services.